Weather History for LJPZ - December, 2013

Change the Weather History Date:

Sunday, December 22, 2013

  Actual Average (LIVT) Record (LIVT)
Temperature  
Mean Temperature 50 °F -  
Max Temperature 51 °F 45 °F 55 °F (2010)
Min Temperature 48 °F 38 °F 32 °F (2000)
Degree Days  
Heating Degree Days 16    
Moisture  
Dew Point 48 °F    
Average Humidity 93    
Maximum Humidity 100    
Minimum Humidity 87    
Precipitation  
Precipitation 0.00 in - - ()
Sea Level Pressure  
Sea Level Pressure 30.47 in    
Wind  
Wind Speed 3 mph ()    
Max Wind Speed 5 mph    
Max Gust Speed -    
Visibility 2.5 miles    
Events Fog , Rain    
Averages and records for this station are not official NWS values.
T = Trace of Precipitation, MM = Missing Value Source: Averaged Metar Reports

Daily Weather History Graph

Daily Weather History Graph

Search for Another Location

Airport or City:

Trip Planner

Search our weather history database for the weather conditions in past years. The results will help you decide how hot, cold, wet, or windy it might be!

Date:

Astronomy

Dec. 22, 2013 Rise Set
Actual Time 7:42 AM CET 4:25 PM CET
Civil Twilight 7:08 AM CET 4:59 PM CET
Nautical Twilight 6:31 AM CET 5:37 PM CET
Astronomical Twilight 5:54 AM CET 6:13 PM CET
Moon 9:35 PM CET (12/22) 10:18 AM CET (12/22)
Length of Visible Light 9h 50m
Length of Day
8h 42m
Waning Gibbous, 79% of the Moon is Illuminated
Dec 22
Waning Gibbous
Dec 25
Last Quarter
Jan 1
New
Jan 8
First Quarter
Jan 16
Full

Hourly Weather History & Observations

Time (CET) Temp. Dew Point Humidity Pressure Visibility Wind Dir Wind Speed Gust Speed Precip Events Conditions
12:00 AM 50.0 °F 48.2 °F 94% 30.54 in 3.7 mi SE 4.6 mph - N/A   Mostly Cloudy
12:30 AM 50.0 °F 48.2 °F 94% 30.54 in 3.7 mi ESE 3.5 mph - N/A   Overcast
1:00 AM 50.0 °F 48.2 °F 94% 30.54 in 3.1 mi SE 2.3 mph - N/A   Mostly Cloudy
1:30 AM 50.0 °F 48.2 °F 94% 30.54 in 3.7 mi ESE 4.6 mph - N/A   Mostly Cloudy
2:00 AM 50.0 °F 48.2 °F 94% 30.54 in 3.7 mi SE 3.5 mph - N/A   Mostly Cloudy
2:30 AM 50.0 °F 48.2 °F 94% 30.51 in 3.7 mi ESE 4.6 mph - N/A   Overcast
3:00 AM 50.0 °F 46.4 °F 87% 30.51 in 3.1 mi Variable 3.5 mph - N/A   Mostly Cloudy
3:30 AM 50.0 °F 48.2 °F 94% 30.51 in - Calm Calm - N/A   Overcast
4:00 AM 50.0 °F 48.2 °F 94% 30.51 in 3.1 mi Variable 1.2 mph - N/A   Mostly Cloudy
4:30 AM 50.0 °F 48.2 °F 94% 30.51 in 3.1 mi Variable 3.5 mph - N/A   Mostly Cloudy
5:00 AM 51.8 °F 48.2 °F 88% 30.51 in 3.7 mi Variable 2.3 mph - N/A   Mostly Cloudy
5:30 AM 51.8 °F 48.2 °F 88% 30.51 in 3.7 mi SSE 4.6 mph - N/A   Mostly Cloudy
6:00 AM 51.8 °F 48.2 °F 88% 30.51 in 3.1 mi South 3.5 mph - N/A   Overcast
6:30 AM 50.0 °F 48.2 °F 94% 30.51 in 3.1 mi SE 3.5 mph - N/A   Overcast
7:00 AM 50.0 °F 48.2 °F 94% 30.51 in 3.7 mi SE 3.5 mph - N/A   Overcast
7:30 AM 50.0 °F 46.4 °F 87% 30.51 in 3.7 mi SE 4.6 mph - N/A   Overcast
8:00 AM 50.0 °F 46.4 °F 87% 30.51 in 3.7 mi SSE 4.6 mph - N/A   Overcast
8:30 AM 50.0 °F 46.4 °F 87% 30.51 in 3.7 mi ESE 4.6 mph - N/A   Overcast
9:00 AM 50.0 °F 46.4 °F 87% 30.51 in 3.7 mi Variable 1.2 mph - N/A   Overcast
9:30 AM 50.0 °F 48.2 °F 94% 30.51 in 3.7 mi SE 3.5 mph - N/A   Overcast
10:00 AM 50.0 °F 48.2 °F 94% 30.51 in 3.1 mi SSW 3.5 mph - N/A   Overcast
10:30 AM 50.0 °F 48.2 °F 94% 30.51 in 3.1 mi Variable 2.3 mph - N/A   Overcast
11:00 AM 51.8 °F 48.2 °F 88% 30.51 in 3.1 mi Variable 2.3 mph - N/A   Overcast
11:30 AM 50.0 °F 48.2 °F 94% 30.48 in 2.8 mi WSW 3.5 mph - N/A   Overcast
12:00 PM 51.8 °F 48.2 °F 88% 30.48 in 2.8 mi SSW 3.5 mph - N/A   Overcast
12:30 PM 50.0 °F 48.2 °F 94% 30.48 in 2.5 mi West 3.5 mph - N/A   Overcast
1:00 PM 50.0 °F 48.2 °F 94% 30.45 in 2.5 mi Variable 2.3 mph - N/A   Overcast
1:30 PM 50.0 °F 48.2 °F 94% 30.45 in 2.5 mi Variable 1.2 mph - N/A   Overcast
2:00 PM 50.0 °F 48.2 °F 94% 30.45 in 2.5 mi WNW 2.3 mph - N/A   Overcast
2:30 PM 50.0 °F 48.2 °F 94% 30.42 in 1.9 mi NNW 2.3 mph - N/A   Overcast
3:00 PM 50.0 °F 48.2 °F 94% 30.42 in 1.9 mi Variable 1.2 mph - N/A   Overcast
3:30 PM 50.0 °F 48.2 °F 94% 30.42 in 1.9 mi Calm Calm - N/A   Overcast
4:00 PM 50.0 °F 48.2 °F 94% 30.42 in 1.6 mi NNW 1.2 mph - N/A   Overcast
4:30 PM 50.0 °F 48.2 °F 94% 30.42 in 1.2 mi SW 1.2 mph - N/A   Light Drizzle
5:00 PM 50.0 °F 48.2 °F 94% 30.42 in 1.9 mi Calm Calm - N/A   Overcast
5:30 PM 50.0 °F 48.2 °F 94% 30.42 in 1.9 mi SE 3.5 mph - N/A   Light Drizzle
6:00 PM 50.0 °F 48.2 °F 94% 30.42 in 1.9 mi Calm Calm - N/A   Light Drizzle
6:30 PM 50.0 °F 48.2 °F 94% 30.42 in 1.2 mi Calm Calm - N/A   Overcast
7:00 PM 50.0 °F 48.2 °F 94% 30.42 in 1.2 mi Variable 1.2 mph - N/A   Overcast
7:30 PM 48.2 °F 48.2 °F 100% 30.42 in 1.2 mi SE 3.5 mph - N/A   Overcast
8:00 PM 50.0 °F 48.2 °F 94% 30.42 in 1.2 mi Calm Calm - N/A   Overcast
8:30 PM 50.0 °F 48.2 °F 94% 30.42 in 1.2 mi Calm Calm - N/A   Overcast
9:00 PM 50.0 °F 48.2 °F 94% 30.39 in 1.2 mi ESE 2.3 mph - N/A   Overcast
9:30 PM 50.0 °F 48.2 °F 94% 30.39 in 0.9 mi Calm Calm - N/A   Overcast
10:00 PM 50.0 °F 48.2 °F 94% 30.39 in 0.7 mi East 1.2 mph - N/A   Overcast
10:30 PM 50.0 °F 48.2 °F 94% 30.39 in 1.0 mi Variable 1.2 mph - N/A Fog Fog
11:00 PM 48.2 °F 48.2 °F 100% 30.39 in 0.7 mi SE 2.3 mph - N/A Fog , Rain Light Rain
11:30 PM 50.0 °F 48.2 °F 94% 30.39 in 1.2 mi Variable 3.5 mph - N/A   Overcast